EW2358 Weather Reports


time (UTC)temp
C
wind
direction
speed
KPH
gust
KPH
rain 1hr
cm
rain 24hr
cm
rain mn
cm
humidity
%
barometer
mb
20260506004508 22 126 0.0 3.2 0.00 0.00 0.00 69 1015.3
20260506003008 22 126 0.0 3.2 0.00 0.00 0.00 68 1015.0
20260506001506 23 121 1.6 4.8 0.00 0.00 0.00 66 1015.0
20260506000005 23 360 0.0 6.4 0.00 0.00 0.00 64 1014.9
20260505234506 23 119 1.6 9.7 0.00 0.00 0.00 63 1014.9
20260505233005 24 360 3.2 8.0 0.00 0.00 0.00 61 1014.9
20260505231506 25 149 3.2 9.7 0.00 0.00 0.00 59 1014.9
20260505230008 25 170 6.4 12.9 0.00 0.00 0.00 57 1015.0
20260505224502 25 97 6.4 14.5 0.00 0.00 0.00 59 1015.0
20260505223001 25 161 6.4 14.5 0.00 0.00 0.00 58 1014.9
20260505221604 26 107 4.8 14.5 0.00 0.00 0.00 57 1014.9
20260505220059 26 114 3.2 11.3 0.00 0.00 0.00 57 1015.0
20260505214557 26 161 4.8 12.9 0.00 0.00 0.00 54 1015.0
20260505213056 26 169 1.6 14.5 0.00 0.00 0.00 55 1015.1
20260505211554 27 125 4.8 12.9 0.00 0.00 0.00 50 1015.2
20260505210051 27 174 3.2 14.5 0.00 0.00 0.00 53 1015.2
20260505204552 27 157 4.8 14.5 0.00 0.00 0.00 55 1015.2
20260505203057 27 103 4.8 12.9 0.00 0.00 0.00 54 1015.2
20260505201549 27 57 3.2 14.5 0.00 0.00 0.00 54 1015.3
20260505200048 27 11 8.0 16.1 0.00 0.00 0.00 54 1015.5
20260505194603 27 113 6.4 14.5 0.00 0.00 0.00 56 1015.6
20260505193044 28 17 4.8 11.3 0.00 0.00 0.00 53 1015.8
20260505191554 28 159 3.2 14.5 0.00 0.00 0.00 53 1015.9
20260505190044 28 108 6.4 17.7 0.00 0.00 0.00 54 1016.1
20260505184540 28 349 6.4 17.7 0.00 0.00 0.00 53 1016.3
20260505183040 28 71 1.6 11.3 0.00 0.00 0.00 55 1016.3
20260505181539 28 72 4.8 24.1 0.00 0.00 0.00 53 1016.3
20260505180046 28 11 6.4 12.9 0.00 0.00 0.00 56 1016.5
20260505174536 28 139 6.4 14.5 0.00 0.00 0.00 53 1016.5
20260505173036 28 78 6.4 14.5 0.00 0.00 0.00 55 1016.6
20260505171534 27 165 4.8 11.3 0.00 0.00 0.00 56 1016.8
20260505170033 27 132 3.2 14.5 0.00 0.00 0.00 58 1016.7
20260505164530 27 92 4.8 9.7 0.00 0.00 0.00 59 1017.0
20260505163029 27 66 3.2 11.3 0.00 0.00 0.00 58 1017.1
20260505161528 27 360 8.0 14.5 0.00 0.00 0.00 54 1016.9
20260505153023 27 122 4.8 11.3 0.00 0.00 0.00 61 1016.8
20260505151522 27 33 3.2 14.5 0.00 0.00 0.00 60 1016.8
20260505130103 23 140 3.2 8.0 0.00 0.00 0.00 74 1016.4
20260505124557 23 121 0.0 0.0 0.00 0.00 0.00 79 1016.3
20260505123150 21 117 0.0 0.0 0.00 0.00 0.00 87 1016.0
20260505121616 19 117 0.0 0.0 0.00 0.00 0.00 95 1016.0
20260505120041 17 117 0.0 0.0 0.00 0.00 0.00 97 1015.9
20260505114541 15 117 0.0 0.0 0.00 0.00 0.00 98 1015.8
20260505113044 13 119 0.0 1.6 0.00 0.00 0.00 96 1015.8
20260505111539 13 360 0.0 0.0 0.00 0.00 0.00 95 1015.6
20260505101530 13 117 0.0 0.0 0.00 0.00 0.00 94 1015.1
20260505100036 13 117 0.0 0.0 0.00 0.00 0.00 94 1015.1
20260505094525 13 117 0.0 0.0 0.00 0.00 0.00 94 1014.9
20260505093029 13 117 0.0 0.0 0.00 0.00 0.00 94 1014.8
20260505091533 13 117 0.0 0.0 0.00 0.00 0.00 94 1014.7
20260505090024 13 117 0.0 0.0 0.00 0.00 0.00 94 1014.7
20260505084525 13 117 0.0 0.0 0.00 0.00 0.00 94 1014.8
20260505083032 13 117 0.0 0.0 0.00 0.00 0.00 93 1014.8
20260505081522 13 117 0.0 0.0 0.00 0.00 0.00 93 1014.7
20260505080032 13 117 0.0 0.0 0.00 0.00 0.00 93 1014.7
20260505074518 14 117 0.0 0.0 0.00 0.00 0.00 92 1014.7
20260505073016 14 117 0.0 0.0 0.00 0.00 0.00 92 1014.9
20260505071522 14 117 0.0 0.0 0.00 0.00 0.00 92 1014.9
20260505070013 15 117 0.0 0.0 0.00 0.00 0.00 91 1014.9
20260505064511 15 117 0.0 0.0 0.00 0.00 0.00 91 1014.8
20260505063014 15 118 0.0 0.0 0.00 0.00 0.00 91 1015.1
20260505061507 15 118 0.0 0.0 0.00 0.00 0.00 90 1015.0
20260505060006 15 119 0.0 0.0 0.00 0.00 0.00 90 1015.2
20260505054503 16 118 0.0 0.0 0.00 0.00 0.00 89 1015.4
20260505053100 16 118 0.0 0.0 0.00 0.00 0.00 89 1015.5
20260505051557 16 119 0.0 0.0 0.00 0.00 0.00 87 1015.7
20260505041558 17 119 0.0 0.0 0.00 0.00 0.00 85 1016.1
20260505040045 17 119 0.0 0.0 0.00 0.00 0.00 84 1016.0
20260505034544 18 118 0.0 0.0 0.00 0.00 0.00 83 1016.0
20260505033044 18 118 0.0 0.0 0.00 0.00 0.00 82 1016.3
20260505031543 18 119 0.0 0.0 0.00 0.00 0.00 82 1016.4
20260505030055 18 119 0.0 0.0 0.00 0.00 0.00 82 1016.4
20260505024543 18 119 0.0 0.0 0.00 0.00 0.00 81 1016.3
20260505023042 18 120 0.0 0.0 0.00 0.00 0.00 81 1016.4
20260505021551 18 120 0.0 0.0 0.00 0.00 0.00 81 1016.4
20260505020051 18 119 0.0 0.0 0.00 0.00 0.00 80 1016.5
20260505014543 19 120 0.0 0.0 0.00 0.00 0.00 79 1016.3
20260505013042 19 120 0.0 0.0 0.00 0.00 0.00 78 1016.3
20260505011540 20 119 0.0 0.0 0.00 0.00 0.00 76 1016.1